CPA525 LTFM-VHHH

Flight info

Callsign CPA525
Flight time N/A
Altitude 37000
Route EKAWE UT643 GAKSU UT310 SIN UN644 KARDE UL851 TBN UR317 REBLO DCT MATAL T916 SUBUT T923 ERLEV M11 RODAR A909 BABUM A477 POGON/K0904F370 T388 BUPOR/K0896F390 Q169 INDUD M875 AMDAR/N0485F390 M875 TAPIS L509 NONIB T400 SULOM M890 LKN A201 LSO/N0487F410 A599 LINSO/K0900S1250 A599 POU R473 SIERA
Aircraft A359/H-SDE2E3GHIJ3J4J5LM1ORWXY/LB1D1

Departure

Time N/A
Airport İstanbul Airport (LTFM)

Arrival

Time 2026-05-06 20:03
Airport Hong Kong International Airport (VHHH)
Time Latitude Longitude Altitude Speed Heading
2026-05-06 19:34 23.08120 112.43373 40934 ft 527 kts 103°
2026-05-06 19:34 23.07335 112.47260 40930 ft 527 kts 99°
2026-05-06 19:34 23.06543 112.55158 40934 ft 526 kts 94°
2026-05-06 19:35 23.05995 112.63086 40933 ft 526 kts 93°
2026-05-06 19:35 23.05485 112.71012 40934 ft 526 kts 93°
2026-05-06 19:36 23.04962 112.78886 40934 ft 526 kts 93°
2026-05-06 19:36 23.04422 112.86800 40934 ft 526 kts 94°
2026-05-06 19:37 23.03873 112.94723 40934 ft 526 kts 94°
2026-05-06 19:37 23.03414 113.01304 40934 ft 526 kts 94°
2026-05-06 19:38 23.02214 113.10470 40935 ft 526 kts 107°
2026-05-06 19:38 23.00882 113.14159 40935 ft 524 kts 118°
2026-05-06 19:38 22.98983 113.17527 40935 ft 521 kts 129°
2026-05-06 19:39 22.96630 113.20394 40934 ft 518 kts 140°
2026-05-06 19:39 22.93803 113.22795 40934 ft 513 kts 150°
2026-05-06 19:39 22.90663 113.24591 40934 ft 508 kts 161°
2026-05-06 19:39 22.87317 113.25752 40934 ft 503 kts 172°
2026-05-06 19:40 22.80432 113.26908 40934 ft 503 kts 171°
2026-05-06 19:40 22.73654 113.28927 40934 ft 506 kts 167°
2026-05-06 19:41 22.66911 113.31193 40934 ft 507 kts 166°
2026-05-06 19:41 22.60247 113.33517 40879 ft 503 kts 165°
2026-05-06 19:42 22.56958 113.34671 40219 ft 491 kts 166°
2026-05-06 19:42 22.53707 113.35804 38963 ft 492 kts 166°
2026-05-06 19:42 22.50431 113.36935 37527 ft 497 kts 166°
2026-05-06 19:42 22.47115 113.38075 36072 ft 502 kts 166°
2026-05-06 19:43 22.43778 113.39222 34583 ft 505 kts 166°
2026-05-06 19:43 22.40415 113.40378 33005 ft 508 kts 165°
2026-05-06 19:43 22.37031 113.41543 31328 ft 512 kts 165°
2026-05-06 19:43 22.33624 113.42717 29595 ft 515 kts 165°
2026-05-06 19:44 22.30204 113.43895 27917 ft 516 kts 165°
2026-05-06 19:44 22.26845 113.45053 26545 ft 509 kts 164°
2026-05-06 19:44 22.23516 113.46202 25357 ft 496 kts 165°
2026-05-06 19:44 22.20274 113.47334 24129 ft 484 kts 163°
2026-05-06 19:45 22.17124 113.48489 22881 ft 472 kts 163°
2026-05-06 19:45 22.14058 113.49624 21888 ft 457 kts 163°
2026-05-06 19:45 22.11145 113.50701 21565 ft 427 kts 163°
2026-05-06 19:45 22.08426 113.51705 21353 ft 399 kts 164°
2026-05-06 19:46 22.05872 113.52644 21153 ft 380 kts 164°
2026-05-06 19:46 22.03404 113.53546 20971 ft 370 kts 164°
2026-05-06 19:46 22.00978 113.54432 20533 ft 367 kts 164°
2026-05-06 19:46 21.98564 113.55313 20061 ft 366 kts 164°
2026-05-06 19:47 21.96179 113.56283 19614 ft 366 kts 159°
2026-05-06 19:47 21.93853 113.57381 19177 ft 364 kts 159°
2026-05-06 19:47 21.91553 113.58477 18750 ft 362 kts 159°
2026-05-06 19:47 21.89256 113.59558 18316 ft 359 kts 159°
2026-05-06 19:48 21.86968 113.60624 17892 ft 357 kts 159°
2026-05-06 19:48 21.84690 113.61679 17466 ft 355 kts 159°
2026-05-06 19:48 21.82424 113.62725 17041 ft 353 kts 159°
2026-05-06 19:48 21.80176 113.63760 16617 ft 351 kts 159°
2026-05-06 19:49 21.77936 113.64791 16196 ft 349 kts 159°
2026-05-06 19:49 21.75712 113.65812 15778 ft 347 kts 159°
2026-05-06 19:49 21.73500 113.66829 15358 ft 345 kts 159°
2026-05-06 19:49 21.71297 113.67840 14940 ft 343 kts 159°
2026-05-06 19:50 21.69130 113.68901 14519 ft 342 kts 154°
2026-05-06 19:50 21.67284 113.70448 14096 ft 343 kts 133°
2026-05-06 19:50 21.66071 113.72647 13678 ft 344 kts 110°
2026-05-06 19:50 21.65716 113.75172 13255 ft 343 kts 87°
2026-05-06 19:51 21.66266 113.77669 12910 ft 348 kts 65°
2026-05-06 19:51 21.67637 113.79784 12424 ft 344 kts 41°
2026-05-06 19:51 21.68899 113.80791 12133 ft 339 kts 27°
2026-05-06 19:51 21.71866 113.81679 11565 ft 328 kts 359°
2026-05-06 19:52 21.74123 113.81666 11141 ft 325 kts
2026-05-06 19:52 21.75626 113.81916 10895 ft 324 kts 14°
2026-05-06 19:52 21.77629 113.83010 10588 ft 334 kts 36°
2026-05-06 19:52 21.79421 113.84648 10355 ft 338 kts 41°
2026-05-06 19:53 21.81116 113.86326 10166 ft 320 kts 42°
2026-05-06 19:53 21.82718 113.87897 9716 ft 304 kts 40°
2026-05-06 19:53 21.84507 113.89069 9359 ft 303 kts 19°
2026-05-06 19:53 21.86573 113.89325 9029 ft 299 kts 351°
2026-05-06 19:54 21.88544 113.88669 8722 ft 296 kts 335°
2026-05-06 19:54 21.90416 113.87740 8420 ft 296 kts 333°
2026-05-06 19:54 21.92280 113.86790 8117 ft 295 kts 334°
2026-05-06 19:54 21.94111 113.85864 7820 ft 294 kts 334°
2026-05-06 19:55 21.95955 113.84936 7515 ft 292 kts 334°
2026-05-06 19:55 21.97794 113.84016 7229 ft 291 kts 334°
2026-05-06 19:55 21.99631 113.83099 6934 ft 290 kts 334°
2026-05-06 19:55 22.01455 113.82190 6638 ft 288 kts 334°
2026-05-06 19:56 22.03271 113.81285 6348 ft 286 kts 334°
2026-05-06 19:56 22.05078 113.80384 6057 ft 285 kts 335°
2026-05-06 19:56 22.06876 113.79488 5766 ft 284 kts 335°
2026-05-06 19:56 22.08666 113.78596 5482 ft 283 kts 335°
2026-05-06 19:57 22.10447 113.77708 5199 ft 282 kts 335°
2026-05-06 19:57 22.12231 113.76826 4891 ft 280 kts 335°
2026-05-06 19:57 22.13973 113.75957 4655 ft 276 kts 335°
2026-05-06 19:57 22.15676 113.75103 4499 ft 264 kts 335°
2026-05-06 19:58 22.17309 113.74285 4340 ft 253 kts 335°
2026-05-06 19:58 22.18868 113.73505 4213 ft 242 kts 336°
2026-05-06 19:58 22.20369 113.72792 4078 ft 230 kts 341°
2026-05-06 19:58 22.21902 113.72726 3875 ft 217 kts 21°
2026-05-06 19:59 22.23189 113.73446 3598 ft 204 kts 35°
2026-05-06 19:59 22.24345 113.74287 3256 ft 196 kts 37°
2026-05-06 19:59 22.25457 113.75102 2853 ft 188 kts 37°
2026-05-06 19:59 22.26411 113.75942 2612 ft 166 kts 51°
2026-05-06 20:00 22.27004 113.77017 2469 ft 175 kts 71°
2026-05-06 20:00 22.27362 113.78223 2282 ft 163 kts 73°
2026-05-06 20:00 22.27731 113.79365 2062 ft 160 kts 71°
2026-05-06 20:00 22.28100 113.80490 1842 ft 156 kts 72°
2026-05-06 20:01 22.28448 113.81574 1641 ft 150 kts 72°
2026-05-06 20:01 22.28787 113.82628 1443 ft 148 kts 72°
2026-05-06 20:01 22.29121 113.83667 1249 ft 144 kts 72°
2026-05-06 20:01 22.29444 113.84672 1059 ft 140 kts 72°
2026-05-06 20:02 22.29762 113.85662 874 ft 140 kts 72°
2026-05-06 20:02 22.30080 113.86653 679 ft 139 kts 72°
2026-05-06 20:02 22.30398 113.87642 502 ft 139 kts 72°
2026-05-06 20:02 22.30715 113.88632 320 ft 139 kts 71°
2026-05-06 20:03 22.31033 113.89618 137 ft 140 kts 71°
2026-05-06 20:03 22.31349 113.90595 39 ft 132 kts 71°
2026-05-06 20:03 22.31585 113.91330 38 ft 64 kts 71°
2026-05-06 20:03 22.31648 113.91565 39 ft 20 kts 83°
2026-05-06 20:04 22.31647 113.91715 39 ft 19 kts 101°
2026-05-06 20:04 22.31622 113.91855 38 ft 20 kts 101°
2026-05-06 20:04 22.31598 113.92003 38 ft 19 kts 123°
2026-05-06 20:04 22.31481 113.92073 38 ft 20 kts 161°
2026-05-06 20:05 22.31340 113.92127 38 ft 23 kts 160°
2026-05-06 20:05 22.31187 113.92187 38 ft 25 kts 160°
2026-05-06 20:05 22.31020 113.92246 38 ft 26 kts 161°
2026-05-06 20:05 22.30843 113.92310 38 ft 28 kts 161°
2026-05-06 20:06 22.30745 113.92386 38 ft 8 kts 93°
2026-05-06 20:06 22.30762 113.92480 38 ft 17 kts 74°
2026-05-06 20:06 22.30810 113.92628 38 ft 25 kts 67°
2026-05-06 20:06 22.30941 113.92770 38 ft 29 kts 27°
2026-05-06 20:07 22.31128 113.92869 38 ft 27 kts 26°
2026-05-06 20:07 22.31194 113.92964 38 ft 8 kts 68°
2026-05-06 20:07 22.31237 113.92991 38 ft 7 kts
2026-05-06 20:07 22.31282 113.92980 38 ft 4 kts 341°
2026-05-06 20:08 22.31296 113.92976 38 ft 0 kts 341°